Year,Month,Day,Hour,Minute,Value (Times are PST for temperature in C)
2018,02,16,00,00,3.80
2018,02,16,00,01,3.70
2018,02,16,00,02,3.70
2018,02,16,00,03,3.70
2018,02,16,00,04,3.70
2018,02,16,00,05,3.70
2018,02,16,00,06,3.70
2018,02,16,00,07,3.70
2018,02,16,00,08,3.70
2018,02,16,00,09,3.80
2018,02,16,00,10,3.80
2018,02,16,00,11,3.80
2018,02,16,00,12,3.80
2018,02,16,00,13,3.80
2018,02,16,00,14,3.70
2018,02,16,00,15,3.70
2018,02,16,00,16,3.70
2018,02,16,00,17,3.70
2018,02,16,00,18,3.80
2018,02,16,00,19,3.80
2018,02,16,00,20,3.80
2018,02,16,00,21,3.80
2018,02,16,00,22,3.80
2018,02,16,00,23,3.80
2018,02,16,00,24,3.70
2018,02,16,00,25,3.70
2018,02,16,00,26,3.70
2018,02,16,00,27,3.70
2018,02,16,00,28,3.70
2018,02,16,00,29,3.70
2018,02,16,00,30,3.70
2018,02,16,00,31,3.70
2018,02,16,00,32,3.70
2018,02,16,00,33,3.70
2018,02,16,00,34,3.70
2018,02,16,00,35,3.70
2018,02,16,00,36,3.70
2018,02,16,00,37,3.60
2018,02,16,00,38,3.60
2018,02,16,00,39,3.60
2018,02,16,00,40,3.60
2018,02,16,00,41,3.60
2018,02,16,00,42,3.60
2018,02,16,00,43,3.60
2018,02,16,00,44,3.60
2018,02,16,00,45,3.60
2018,02,16,00,46,3.60
2018,02,16,00,47,3.60
2018,02,16,00,48,3.60
2018,02,16,00,49,3.60
2018,02,16,00,50,3.60
2018,02,16,00,51,3.70
2018,02,16,00,52,3.70
2018,02,16,00,53,3.70
2018,02,16,00,54,3.70
2018,02,16,00,55,3.70
2018,02,16,00,56,3.70
2018,02,16,00,57,3.70
2018,02,16,00,58,3.70
2018,02,16,00,59,3.70
2018,02,16,01,00,3.70
2018,02,16,01,01,3.70
2018,02,16,01,02,3.70
2018,02,16,01,03,3.70
2018,02,16,01,04,3.70
2018,02,16,01,05,3.70
2018,02,16,01,06,3.60
2018,02,16,01,07,3.60
2018,02,16,01,08,3.60
2018,02,16,01,09,3.60
2018,02,16,01,10,3.70
2018,02,16,01,11,3.70
2018,02,16,01,12,3.70
2018,02,16,01,13,3.70
2018,02,16,01,14,3.70
2018,02,16,01,15,3.70
2018,02,16,01,16,3.70
2018,02,16,01,17,3.70
2018,02,16,01,18,3.70
2018,02,16,01,19,3.70
2018,02,16,01,20,3.70
2018,02,16,01,21,3.80
2018,02,16,01,22,3.80
2018,02,16,01,23,3.80
2018,02,16,01,24,3.80
2018,02,16,01,25,3.80
2018,02,16,01,26,3.70
2018,02,16,01,27,3.70
2018,02,16,01,28,3.70
2018,02,16,01,29,3.70
2018,02,16,01,30,3.70
2018,02,16,01,31,3.70
2018,02,16,01,32,3.70
2018,02,16,01,33,3.70
2018,02,16,01,34,3.70
2018,02,16,01,35,3.70
2018,02,16,01,36,3.70
2018,02,16,01,37,3.70
2018,02,16,01,38,3.70
2018,02,16,01,39,3.70
2018,02,16,01,40,3.60
2018,02,16,01,41,3.60
2018,02,16,01,42,3.60
2018,02,16,01,43,3.60
2018,02,16,01,44,3.50
2018,02,16,01,45,3.50
2018,02,16,01,46,3.50
2018,02,16,01,47,3.40
2018,02,16,01,48,3.40
2018,02,16,01,49,3.40
2018,02,16,01,50,3.40
2018,02,16,01,51,3.40
2018,02,16,01,52,3.40
2018,02,16,01,53,3.40
2018,02,16,01,54,3.40
2018,02,16,01,55,3.40
2018,02,16,01,56,3.40
2018,02,16,01,57,3.40
2018,02,16,01,58,3.30
2018,02,16,01,59,3.20
2018,02,16,02,00,3.20
2018,02,16,02,01,3.10
2018,02,16,02,02,3.00
2018,02,16,02,03,3.00
2018,02,16,02,04,2.90
2018,02,16,02,05,2.80
2018,02,16,02,06,2.70
2018,02,16,02,07,2.60
2018,02,16,02,08,2.50
2018,02,16,02,09,2.30
2018,02,16,02,10,2.30
2018,02,16,02,11,2.10
2018,02,16,02,12,2.00
2018,02,16,02,13,1.90
2018,02,16,02,14,1.80
2018,02,16,02,15,1.70
2018,02,16,02,16,1.60
2018,02,16,02,17,1.50
2018,02,16,02,18,1.40
2018,02,16,02,19,1.40
2018,02,16,02,20,1.30
2018,02,16,02,21,1.20
2018,02,16,02,22,1.20
2018,02,16,02,23,1.20
2018,02,16,02,24,1.20
2018,02,16,02,25,1.10
2018,02,16,02,26,1.10
2018,02,16,02,27,1.10
2018,02,16,02,28,1.10
2018,02,16,02,29,1.10
2018,02,16,02,30,1.00
2018,02,16,02,31,1.00
2018,02,16,02,32,1.00
2018,02,16,02,33,1.00
2018,02,16,02,34,0.90
2018,02,16,02,35,0.90
2018,02,16,02,36,0.90
2018,02,16,02,37,0.90
2018,02,16,02,38,0.90
2018,02,16,02,39,0.90
2018,02,16,02,40,0.90
2018,02,16,02,41,0.80
2018,02,16,02,42,0.80
2018,02,16,02,43,0.80
2018,02,16,02,44,0.80
2018,02,16,02,45,0.80
2018,02,16,02,46,0.80
2018,02,16,02,47,0.80
2018,02,16,02,48,0.80
2018,02,16,02,49,0.80
2018,02,16,02,50,0.80
2018,02,16,02,51,0.80
2018,02,16,02,52,0.80
2018,02,16,02,53,0.80
2018,02,16,02,54,0.80
2018,02,16,02,55,0.80
2018,02,16,02,56,0.80
2018,02,16,02,57,0.80
2018,02,16,02,58,0.70
2018,02,16,02,59,0.70
2018,02,16,03,00,0.80
2018,02,16,03,01,0.70
2018,02,16,03,02,0.70
2018,02,16,03,03,0.70
2018,02,16,03,04,0.70
2018,02,16,03,05,0.70
2018,02,16,03,06,0.70
2018,02,16,03,07,0.70
2018,02,16,03,08,0.70
2018,02,16,03,09,0.70
2018,02,16,03,10,0.70
2018,02,16,03,11,0.70
2018,02,16,03,12,0.70
2018,02,16,03,13,0.70
2018,02,16,03,14,0.70
2018,02,16,03,15,0.70
2018,02,16,03,16,0.70
2018,02,16,03,17,0.70
2018,02,16,03,18,0.70
2018,02,16,03,19,0.70
2018,02,16,03,20,0.70
2018,02,16,03,21,0.70
2018,02,16,03,22,0.70
2018,02,16,03,23,0.70
2018,02,16,03,24,0.70
2018,02,16,03,25,0.70
2018,02,16,03,26,0.70
2018,02,16,03,27,0.80
2018,02,16,03,28,0.80
2018,02,16,03,29,0.80
2018,02,16,03,30,0.80
2018,02,16,03,31,0.80
2018,02,16,03,32,0.80
2018,02,16,03,33,0.80
2018,02,16,03,34,0.80
2018,02,16,03,35,0.80
2018,02,16,03,36,0.80
2018,02,16,03,37,0.80
2018,02,16,03,38,0.80
2018,02,16,03,39,0.80
2018,02,16,03,40,0.80
2018,02,16,03,41,0.80
2018,02,16,03,42,0.80
2018,02,16,03,43,0.80
2018,02,16,03,44,0.80
2018,02,16,03,45,0.80
2018,02,16,03,46,0.80
2018,02,16,03,47,0.80
2018,02,16,03,48,0.80
2018,02,16,03,49,0.80
2018,02,16,03,50,0.80
2018,02,16,03,51,0.80
2018,02,16,03,52,0.80
2018,02,16,03,53,0.80
2018,02,16,03,54,0.80
2018,02,16,03,55,0.80
2018,02,16,03,56,0.80
2018,02,16,03,57,0.80
2018,02,16,03,58,0.80
2018,02,16,03,59,0.80
2018,02,16,04,00,0.80
2018,02,16,04,01,0.80
2018,02,16,04,02,0.80
2018,02,16,04,03,0.80
2018,02,16,04,04,0.80
2018,02,16,04,05,0.80
2018,02,16,04,06,0.80
2018,02,16,04,07,0.80
2018,02,16,04,08,0.80
2018,02,16,04,09,0.80
2018,02,16,04,10,0.90
2018,02,16,04,11,0.90
2018,02,16,04,12,0.90
2018,02,16,04,13,0.90
2018,02,16,04,14,0.90
2018,02,16,04,15,0.90
2018,02,16,04,16,0.90
2018,02,16,04,17,0.90
2018,02,16,04,18,0.90
2018,02,16,04,19,0.90
2018,02,16,04,20,0.90
2018,02,16,04,21,0.90
2018,02,16,04,22,0.90
2018,02,16,04,23,0.90
2018,02,16,04,24,0.90
2018,02,16,04,25,0.90
2018,02,16,04,26,0.90
2018,02,16,04,27,0.90
2018,02,16,04,28,0.90
2018,02,16,04,29,0.90
2018,02,16,04,30,0.90
2018,02,16,04,31,0.90
2018,02,16,04,32,0.90
2018,02,16,04,33,0.90
2018,02,16,04,34,0.90
2018,02,16,04,35,0.90
2018,02,16,04,36,0.90
2018,02,16,04,37,0.90
2018,02,16,04,38,0.90
2018,02,16,04,39,1.00
2018,02,16,04,40,1.00
2018,02,16,04,41,1.00
2018,02,16,04,42,1.00
2018,02,16,04,43,1.00
2018,02,16,04,44,1.00
2018,02,16,04,45,1.00
2018,02,16,04,46,1.00
2018,02,16,04,47,1.00
2018,02,16,04,48,1.00
2018,02,16,04,49,1.00
2018,02,16,04,50,1.00
2018,02,16,04,51,1.00
2018,02,16,04,52,1.00
2018,02,16,04,53,1.00
2018,02,16,04,54,1.00
2018,02,16,04,55,1.00
2018,02,16,04,56,1.00
2018,02,16,04,57,1.00
2018,02,16,04,58,1.00
2018,02,16,04,59,1.00
2018,02,16,05,00,1.00
2018,02,16,05,01,1.00
2018,02,16,05,02,1.00
2018,02,16,05,03,1.10
2018,02,16,05,04,1.10
2018,02,16,05,05,1.10
2018,02,16,05,06,1.10
2018,02,16,05,07,1.10
2018,02,16,05,08,1.10
2018,02,16,05,09,1.10
2018,02,16,05,10,1.10
2018,02,16,05,11,1.10
2018,02,16,05,12,1.10
2018,02,16,05,13,1.10
2018,02,16,05,14,1.10
2018,02,16,05,15,1.10
2018,02,16,05,16,1.10
2018,02,16,05,17,1.10
2018,02,16,05,18,1.10
2018,02,16,05,19,1.10
2018,02,16,05,20,1.10
2018,02,16,05,21,1.10
2018,02,16,05,22,1.10
2018,02,16,05,23,1.10
2018,02,16,05,24,1.10
2018,02,16,05,25,1.10
2018,02,16,05,26,1.10
2018,02,16,05,27,1.10
2018,02,16,05,28,1.10
2018,02,16,05,29,1.10
2018,02,16,05,30,1.10
2018,02,16,05,31,1.10
2018,02,16,05,32,1.10
2018,02,16,05,33,1.10
2018,02,16,05,34,1.10
2018,02,16,05,35,1.10
2018,02,16,05,36,1.10
2018,02,16,05,37,1.10
2018,02,16,05,38,1.10
2018,02,16,05,39,1.10
2018,02,16,05,40,1.20
2018,02,16,05,41,1.20
2018,02,16,05,42,1.20
2018,02,16,05,43,1.20
2018,02,16,05,44,1.20
2018,02,16,05,45,1.20
2018,02,16,05,46,1.20
2018,02,16,05,47,1.20
2018,02,16,05,48,1.20
2018,02,16,05,49,1.20
2018,02,16,05,50,1.20
2018,02,16,05,51,1.20
2018,02,16,05,52,1.20
2018,02,16,05,53,1.20
2018,02,16,05,54,1.20
2018,02,16,05,55,1.20
2018,02,16,05,56,1.20
2018,02,16,05,57,1.20
2018,02,16,05,58,1.20
2018,02,16,05,59,1.20
2018,02,16,06,00,1.20
2018,02,16,06,01,1.20
2018,02,16,06,02,1.20
2018,02,16,06,03,1.20
2018,02,16,06,04,1.20
2018,02,16,06,05,1.20
2018,02,16,06,06,1.20
2018,02,16,06,07,1.20
2018,02,16,06,08,1.10
2018,02,16,06,09,1.20
2018,02,16,06,10,1.10
2018,02,16,06,11,1.20
2018,02,16,06,12,1.20
2018,02,16,06,13,1.20
2018,02,16,06,14,1.20
2018,02,16,06,15,1.20
2018,02,16,06,16,1.20
2018,02,16,06,17,1.20
2018,02,16,06,18,1.20
2018,02,16,06,19,1.20
2018,02,16,06,20,1.20
2018,02,16,06,21,1.20
2018,02,16,06,22,1.20
2018,02,16,06,23,1.20
2018,02,16,06,24,1.20
2018,02,16,06,25,1.20
2018,02,16,06,26,1.20
2018,02,16,06,27,1.20
2018,02,16,06,28,1.20
2018,02,16,06,29,1.20
2018,02,16,06,30,1.20
2018,02,16,06,31,1.20
2018,02,16,06,32,1.20
2018,02,16,06,33,1.20
2018,02,16,06,34,1.20
2018,02,16,06,35,1.20
2018,02,16,06,36,1.20
2018,02,16,06,37,1.20
2018,02,16,06,38,1.20
2018,02,16,06,39,1.20
2018,02,16,06,40,1.20
2018,02,16,06,41,1.30
2018,02,16,06,42,1.30
2018,02,16,06,43,1.30
2018,02,16,06,44,1.30
2018,02,16,06,45,1.30
2018,02,16,06,46,1.30
2018,02,16,06,47,1.30
2018,02,16,06,48,1.30
2018,02,16,06,49,1.30
2018,02,16,06,50,1.30
2018,02,16,06,51,1.30
2018,02,16,06,52,1.30
2018,02,16,06,53,1.30
2018,02,16,06,54,1.30
2018,02,16,06,55,1.30
2018,02,16,06,56,1.30
2018,02,16,06,57,1.30
2018,02,16,06,58,1.30
2018,02,16,06,59,1.30
2018,02,16,07,00,1.30
2018,02,16,07,01,1.30
2018,02,16,07,02,1.30
2018,02,16,07,03,1.30
2018,02,16,07,04,1.30
2018,02,16,07,05,1.30
2018,02,16,07,06,1.30
2018,02,16,07,07,1.30
2018,02,16,07,08,1.30
2018,02,16,07,09,1.30
2018,02,16,07,10,1.30
2018,02,16,07,11,1.30
2018,02,16,07,12,1.30
2018,02,16,07,13,1.30
2018,02,16,07,14,1.30
2018,02,16,07,15,1.40
2018,02,16,07,16,1.40
2018,02,16,07,17,1.40
2018,02,16,07,18,1.40
2018,02,16,07,19,1.40
2018,02,16,07,20,1.40
2018,02,16,07,21,1.40
2018,02,16,07,22,1.40
2018,02,16,07,23,1.40
2018,02,16,07,24,1.40
2018,02,16,07,25,1.40
2018,02,16,07,26,1.40
2018,02,16,07,27,1.40
2018,02,16,07,28,1.40
2018,02,16,07,29,1.40
2018,02,16,07,30,1.40
2018,02,16,07,31,1.40
2018,02,16,07,32,1.40
2018,02,16,07,33,1.40
2018,02,16,07,34,1.50
2018,02,16,07,35,1.50
2018,02,16,07,36,1.50
2018,02,16,07,37,1.50
2018,02,16,07,38,1.50
2018,02,16,07,39,1.50
2018,02,16,07,40,1.50
2018,02,16,07,41,1.50
2018,02,16,07,42,1.50
2018,02,16,07,43,1.50
2018,02,16,07,44,1.50
2018,02,16,07,45,1.50
2018,02,16,07,46,1.50
2018,02,16,07,47,1.50
2018,02,16,07,48,1.50
2018,02,16,07,49,1.50
2018,02,16,07,50,1.60
2018,02,16,07,51,1.60
2018,02,16,07,52,1.60
2018,02,16,07,53,1.60
2018,02,16,07,54,1.60
2018,02,16,07,55,1.60
2018,02,16,07,56,1.60
2018,02,16,07,57,1.60
2018,02,16,07,58,1.60
2018,02,16,07,59,1.60
2018,02,16,08,00,1.60
2018,02,16,08,01,1.60
2018,02,16,08,02,1.60
2018,02,16,08,03,1.60
2018,02,16,08,04,1.60
2018,02,16,08,05,1.60
2018,02,16,08,06,1.60
2018,02,16,08,07,1.60
2018,02,16,08,08,1.60
2018,02,16,08,09,1.60
2018,02,16,08,10,1.60
2018,02,16,08,11,1.60
2018,02,16,08,12,1.60
2018,02,16,08,13,1.60
2018,02,16,08,14,1.60
2018,02,16,08,15,1.60
2018,02,16,08,16,1.60
2018,02,16,08,17,1.60
2018,02,16,08,18,1.60
2018,02,16,08,19,1.60
2018,02,16,08,20,1.60
2018,02,16,08,21,1.60
2018,02,16,08,22,1.60
2018,02,16,08,23,1.60
2018,02,16,08,24,1.60
2018,02,16,08,25,1.60
2018,02,16,08,26,1.60
2018,02,16,08,27,1.60
2018,02,16,08,28,1.60
2018,02,16,08,29,1.60
2018,02,16,08,30,1.70
2018,02,16,08,31,1.70
2018,02,16,08,32,1.70
2018,02,16,08,33,1.70
2018,02,16,08,34,1.70
2018,02,16,08,35,1.70
2018,02,16,08,36,1.70
2018,02,16,08,37,1.70
2018,02,16,08,38,1.70
2018,02,16,08,39,1.70
2018,02,16,08,40,1.70
2018,02,16,08,41,1.70
2018,02,16,08,42,1.70
2018,02,16,08,43,1.70
2018,02,16,08,44,1.70
2018,02,16,08,45,1.80
2018,02,16,08,46,1.70
2018,02,16,08,47,1.80
2018,02,16,08,48,1.80
2018,02,16,08,49,1.80
2018,02,16,08,50,1.80
2018,02,16,08,51,1.80
2018,02,16,08,52,1.80
2018,02,16,08,53,1.80
2018,02,16,08,54,1.80
2018,02,16,08,55,1.80
2018,02,16,08,56,1.80
2018,02,16,08,57,1.80
2018,02,16,08,58,1.80
2018,02,16,08,59,1.90
2018,02,16,09,00,1.90
2018,02,16,09,01,1.90
2018,02,16,09,02,1.90
2018,02,16,09,03,1.90
2018,02,16,09,04,1.90
2018,02,16,09,05,1.90
2018,02,16,09,06,1.90
2018,02,16,09,07,1.90
2018,02,16,09,08,1.90
2018,02,16,09,09,1.90
2018,02,16,09,10,1.90
2018,02,16,09,11,1.90
2018,02,16,09,12,1.90
2018,02,16,09,13,2.00
2018,02,16,09,14,2.00
2018,02,16,09,15,2.00
2018,02,16,09,16,2.00
2018,02,16,09,17,2.00
2018,02,16,09,18,2.10
2018,02,16,09,19,2.10
2018,02,16,09,20,2.10
2018,02,16,09,21,2.10
2018,02,16,09,22,2.10
2018,02,16,09,23,2.10
2018,02,16,09,24,2.10
2018,02,16,09,25,2.10
2018,02,16,09,26,2.10
2018,02,16,09,27,2.10
2018,02,16,09,28,2.20
2018,02,16,09,29,2.20
2018,02,16,09,30,2.20
2018,02,16,09,31,2.20
2018,02,16,09,32,2.20
2018,02,16,09,33,2.20
2018,02,16,09,34,2.20
2018,02,16,09,35,2.20
2018,02,16,09,36,2.20
2018,02,16,09,37,2.20
2018,02,16,09,38,2.20
2018,02,16,09,39,2.20
2018,02,16,09,40,2.30
2018,02,16,09,41,2.30
2018,02,16,09,42,2.30
2018,02,16,09,43,2.30
2018,02,16,09,44,2.30
2018,02,16,09,45,2.30
2018,02,16,09,46,2.30
2018,02,16,09,47,2.30
2018,02,16,09,48,2.30
2018,02,16,09,49,2.30
2018,02,16,09,50,2.40
2018,02,16,09,51,2.40
2018,02,16,09,52,2.40
2018,02,16,09,53,2.40
2018,02,16,09,54,2.40
2018,02,16,09,55,2.40
2018,02,16,09,56,2.40
2018,02,16,09,57,2.40
2018,02,16,09,58,2.40
2018,02,16,09,59,2.40
2018,02,16,10,00,2.50
2018,02,16,10,01,2.50
2018,02,16,10,02,2.50
2018,02,16,10,03,2.50
2018,02,16,10,04,2.50
2018,02,16,10,05,2.60
2018,02,16,10,06,2.60
2018,02,16,10,07,2.60
2018,02,16,10,08,2.60
2018,02,16,10,09,2.60
2018,02,16,10,10,2.60
2018,02,16,10,11,2.60
2018,02,16,10,12,2.60
2018,02,16,10,13,2.60
2018,02,16,10,14,2.60
2018,02,16,10,15,2.60
2018,02,16,10,16,2.60
2018,02,16,10,17,2.70
2018,02,16,10,18,2.70
2018,02,16,10,19,2.70
2018,02,16,10,20,2.70
2018,02,16,10,21,2.70
2018,02,16,10,22,2.70
2018,02,16,10,23,2.70
2018,02,16,10,24,2.70
2018,02,16,10,25,2.70
2018,02,16,10,26,2.70
2018,02,16,10,27,2.80
2018,02,16,10,28,2.80
2018,02,16,10,29,2.80
2018,02,16,10,30,2.80
2018,02,16,10,31,2.80
2018,02,16,10,32,2.80
2018,02,16,10,33,2.90
2018,02,16,10,34,2.90
2018,02,16,10,35,2.90
2018,02,16,10,36,2.90
2018,02,16,10,37,3.00
2018,02,16,10,38,3.00
2018,02,16,10,39,3.00
2018,02,16,10,40,3.00
2018,02,16,10,41,3.00
2018,02,16,10,42,3.10
2018,02,16,10,43,3.10
2018,02,16,10,44,3.10
2018,02,16,10,45,3.10
2018,02,16,10,46,3.10
2018,02,16,10,47,3.20
2018,02,16,10,48,3.20
2018,02,16,10,49,3.20
2018,02,16,10,50,3.20
2018,02,16,10,51,3.20
2018,02,16,10,52,3.20
2018,02,16,10,53,3.20
2018,02,16,10,54,3.20
2018,02,16,10,55,3.20
2018,02,16,10,56,3.20
2018,02,16,10,57,3.20
2018,02,16,10,58,3.20
2018,02,16,10,59,3.20
2018,02,16,11,00,3.20
2018,02,16,11,01,3.10
2018,02,16,11,02,3.10
2018,02,16,11,03,3.20
2018,02,16,11,04,3.20
2018,02,16,11,05,3.20
2018,02,16,11,06,3.20
2018,02,16,11,07,3.20
2018,02,16,11,08,3.20
2018,02,16,11,09,3.20
2018,02,16,11,10,3.20
2018,02,16,11,11,3.20
2018,02,16,11,12,3.30
2018,02,16,11,13,3.30
2018,02,16,11,14,3.30
2018,02,16,11,15,3.30
2018,02,16,11,16,3.30
2018,02,16,11,17,3.40
2018,02,16,11,18,3.40
2018,02,16,11,19,3.30
2018,02,16,11,20,3.30
2018,02,16,11,21,3.30
2018,02,16,11,22,3.20
2018,02,16,11,23,3.20
2018,02,16,11,24,3.20
2018,02,16,11,25,3.20
2018,02,16,11,26,3.20
2018,02,16,11,27,3.20
2018,02,16,11,28,3.20
2018,02,16,11,29,3.20
2018,02,16,11,30,3.30
2018,02,16,11,31,3.30
2018,02,16,11,32,3.30
2018,02,16,11,33,3.30
2018,02,16,11,34,3.40
2018,02,16,11,35,3.40
2018,02,16,11,36,3.40
2018,02,16,11,37,3.40
2018,02,16,11,38,3.40
2018,02,16,11,39,3.40
2018,02,16,11,40,3.40
2018,02,16,11,41,3.40
2018,02,16,11,42,3.40
2018,02,16,11,43,3.30
2018,02,16,11,44,3.30
2018,02,16,11,45,3.40
2018,02,16,11,46,3.40
2018,02,16,11,47,3.50
2018,02,16,11,48,3.50
2018,02,16,11,49,3.50
2018,02,16,11,50,3.50
2018,02,16,11,51,3.60
2018,02,16,11,52,3.60
2018,02,16,11,53,3.60
2018,02,16,11,54,3.60
2018,02,16,11,55,3.60
2018,02,16,11,56,3.60
2018,02,16,11,57,3.60
2018,02,16,11,58,3.60
2018,02,16,11,59,3.60
2018,02,16,12,00,3.50
2018,02,16,12,01,3.50
2018,02,16,12,02,3.50
2018,02,16,12,03,3.50
2018,02,16,12,04,3.50
2018,02,16,12,05,3.50
2018,02,16,12,06,3.50
2018,02,16,12,07,3.60
2018,02,16,12,08,3.60
2018,02,16,12,09,3.60
2018,02,16,12,10,3.70
2018,02,16,12,11,3.70
2018,02,16,12,12,3.80
2018,02,16,12,13,3.80
2018,02,16,12,14,3.90
2018,02,16,12,15,4.00
2018,02,16,12,16,4.10
2018,02,16,12,17,4.10
2018,02,16,12,18,4.20
2018,02,16,12,19,4.30
2018,02,16,12,20,4.40
2018,02,16,12,21,4.40
2018,02,16,12,22,4.40
2018,02,16,12,23,4.40
2018,02,16,12,24,4.40
2018,02,16,12,25,4.50
2018,02,16,12,26,4.60
2018,02,16,12,27,4.70
2018,02,16,12,28,4.70
2018,02,16,12,29,4.80
2018,02,16,12,30,4.90
2018,02,16,12,31,4.90
2018,02,16,12,32,5.00
2018,02,16,12,33,5.00
2018,02,16,12,34,4.90
2018,02,16,12,35,4.90
2018,02,16,12,36,4.90
2018,02,16,12,37,4.90
2018,02,16,12,38,4.90
2018,02,16,12,39,4.90
2018,02,16,12,40,5.00
2018,02,16,12,41,5.00
2018,02,16,12,42,5.10
2018,02,16,12,43,5.10
2018,02,16,12,44,5.00
2018,02,16,12,45,5.00
2018,02,16,12,46,5.00
2018,02,16,12,47,5.00
2018,02,16,12,48,4.90
2018,02,16,12,49,4.90
2018,02,16,12,50,4.90
2018,02,16,12,51,4.90
2018,02,16,12,52,4.90
2018,02,16,12,53,4.90
2018,02,16,12,54,5.00
2018,02,16,12,55,5.00
2018,02,16,12,56,5.10
2018,02,16,12,57,5.10
2018,02,16,12,58,5.20
2018,02,16,12,59,5.20
2018,02,16,13,00,5.20
2018,02,16,13,01,5.20
2018,02,16,13,02,5.30
2018,02,16,13,03,5.30
2018,02,16,13,04,5.40
2018,02,16,13,05,5.40
2018,02,16,13,06,5.50
2018,02,16,13,07,5.50
2018,02,16,13,08,5.50
2018,02,16,13,09,5.60
2018,02,16,13,10,5.60
2018,02,16,13,11,5.70
2018,02,16,13,12,5.70
2018,02,16,13,13,5.80
2018,02,16,13,14,5.80
2018,02,16,13,15,5.80
2018,02,16,13,16,5.80
2018,02,16,13,17,5.90
2018,02,16,13,18,5.90
2018,02,16,13,19,5.90
2018,02,16,13,20,5.90
2018,02,16,13,21,5.90
2018,02,16,13,22,5.90
2018,02,16,13,23,6.00
2018,02,16,13,24,6.00
2018,02,16,13,25,6.00
2018,02,16,13,26,6.00
2018,02,16,13,27,6.00
2018,02,16,13,28,5.90
2018,02,16,13,29,5.90
2018,02,16,13,30,5.90
2018,02,16,13,31,5.90
2018,02,16,13,32,5.80
2018,02,16,13,33,5.80
2018,02,16,13,34,5.80
2018,02,16,13,35,5.80
2018,02,16,13,36,5.80
2018,02,16,13,37,5.70
2018,02,16,13,38,5.70
2018,02,16,13,39,5.80
2018,02,16,13,40,5.80
2018,02,16,13,41,5.70
2018,02,16,13,42,5.70
2018,02,16,13,43,5.60
2018,02,16,13,44,5.60
2018,02,16,13,45,5.60
2018,02,16,13,46,5.60
2018,02,16,13,47,5.50
2018,02,16,13,48,5.50
2018,02,16,13,49,5.40
2018,02,16,13,50,5.40
2018,02,16,13,51,5.40
2018,02,16,13,52,5.30
2018,02,16,13,53,5.40
2018,02,16,13,54,5.40
2018,02,16,13,55,5.40
2018,02,16,13,56,5.40
2018,02,16,13,57,5.30
2018,02,16,13,58,5.30
2018,02,16,13,59,5.30
2018,02,16,14,00,5.30
2018,02,16,14,01,5.30
2018,02,16,14,02,5.30
2018,02,16,14,03,5.40
2018,02,16,14,04,5.40
2018,02,16,14,05,5.40
2018,02,16,14,06,5.40
2018,02,16,14,07,5.40
2018,02,16,14,08,5.40
2018,02,16,14,09,5.40
2018,02,16,14,10,5.50
2018,02,16,14,11,5.60
2018,02,16,14,12,5.60
2018,02,16,14,13,5.60
2018,02,16,14,14,5.60
2018,02,16,14,15,5.60
2018,02,16,14,16,5.60
2018,02,16,14,17,5.60
2018,02,16,14,18,5.70
2018,02,16,14,19,5.70
2018,02,16,14,20,5.70
2018,02,16,14,21,5.80
2018,02,16,14,22,5.80
2018,02,16,14,23,5.80
2018,02,16,14,24,5.80
2018,02,16,14,25,5.80
2018,02,16,14,26,5.90
2018,02,16,14,27,5.90
2018,02,16,14,28,6.00
2018,02,16,14,29,6.00
2018,02,16,14,30,6.10
2018,02,16,14,31,6.20
2018,02,16,14,32,6.20
2018,02,16,14,33,6.30
2018,02,16,14,34,6.30
2018,02,16,14,35,6.40
2018,02,16,14,36,6.40
2018,02,16,14,37,6.40
2018,02,16,14,38,6.50
2018,02,16,14,39,6.50
2018,02,16,14,40,6.60
2018,02,16,14,41,6.60
2018,02,16,14,42,6.70
2018,02,16,14,43,6.70
2018,02,16,14,44,6.80
2018,02,16,14,45,6.80
2018,02,16,14,46,6.80
2018,02,16,14,47,6.80
2018,02,16,14,48,6.80
2018,02,16,14,49,6.70
2018,02,16,14,50,6.70
2018,02,16,14,51,6.70
2018,02,16,14,52,6.70
2018,02,16,14,53,6.60
2018,02,16,14,54,6.60
2018,02,16,14,55,6.60
2018,02,16,14,56,6.60
2018,02,16,14,57,6.60
2018,02,16,14,58,6.60
2018,02,16,14,59,6.60
2018,02,16,15,00,6.60
2018,02,16,15,01,6.60
2018,02,16,15,02,6.60
2018,02,16,15,03,6.60
2018,02,16,15,04,6.60
2018,02,16,15,05,6.60
2018,02,16,15,06,6.60
2018,02,16,15,07,6.60
2018,02,16,15,08,6.60
2018,02,16,15,09,6.60
2018,02,16,15,10,6.50
2018,02,16,15,11,6.50
2018,02,16,15,12,6.50
2018,02,16,15,13,6.50
2018,02,16,15,14,6.60
2018,02,16,15,15,6.60
2018,02,16,15,16,6.60
2018,02,16,15,17,6.70
2018,02,16,15,18,6.70
2018,02,16,15,19,6.70
2018,02,16,15,20,6.70
2018,02,16,15,21,6.80
2018,02,16,15,22,6.80
2018,02,16,15,23,6.80
2018,02,16,15,24,6.80
2018,02,16,15,25,6.80
2018,02,16,15,26,6.80
2018,02,16,15,27,6.80
2018,02,16,15,28,6.80
2018,02,16,15,29,6.90
2018,02,16,15,30,6.90
2018,02,16,15,31,6.90
2018,02,16,15,32,7.00
2018,02,16,15,33,7.00
2018,02,16,15,34,7.10
2018,02,16,15,35,7.10
2018,02,16,15,36,7.10
2018,02,16,15,37,7.20
2018,02,16,15,38,7.20
2018,02,16,15,39,7.30
2018,02,16,15,40,7.30
2018,02,16,15,41,7.30
2018,02,16,15,42,7.30
2018,02,16,15,43,7.30
2018,02,16,15,44,7.20
2018,02,16,15,45,7.20
2018,02,16,15,46,7.10
2018,02,16,15,47,7.10
2018,02,16,15,48,7.10
2018,02,16,15,49,7.10
2018,02,16,15,50,7.10
2018,02,16,15,51,7.10
2018,02,16,15,52,7.10
2018,02,16,15,53,7.20
2018,02,16,15,54,7.20
2018,02,16,15,55,7.20
2018,02,16,15,56,7.10
2018,02,16,15,57,7.10
2018,02,16,15,58,7.10
2018,02,16,15,59,7.10
2018,02,16,16,00,7.00
2018,02,16,16,01,7.00
2018,02,16,16,02,7.00
2018,02,16,16,03,7.00
2018,02,16,16,04,6.90
2018,02,16,16,05,6.90
2018,02,16,16,06,6.90
2018,02,16,16,07,6.90
2018,02,16,16,08,6.80
2018,02,16,16,09,6.80
2018,02,16,16,10,6.80
2018,02,16,16,11,6.80
2018,02,16,16,12,6.80
2018,02,16,16,13,6.70
2018,02,16,16,14,6.70
2018,02,16,16,15,6.70
2018,02,16,16,16,6.70
2018,02,16,16,17,6.70
2018,02,16,16,18,6.60
2018,02,16,16,19,6.60
2018,02,16,16,20,6.60
2018,02,16,16,21,6.60
2018,02,16,16,22,6.60
2018,02,16,16,23,6.60
2018,02,16,16,24,6.60
2018,02,16,16,25,6.60
2018,02,16,16,26,6.60
2018,02,16,16,27,6.60
2018,02,16,16,28,6.60
2018,02,16,16,29,6.60
2018,02,16,16,30,6.60
2018,02,16,16,31,6.60
2018,02,16,16,32,6.60
2018,02,16,16,33,6.50
2018,02,16,16,34,6.50
2018,02,16,16,35,6.50
2018,02,16,16,36,6.50
2018,02,16,16,37,6.50
2018,02,16,16,38,6.50
2018,02,16,16,39,6.40
2018,02,16,16,40,6.40
2018,02,16,16,41,6.40
2018,02,16,16,42,6.40
2018,02,16,16,43,6.40
2018,02,16,16,44,6.40
2018,02,16,16,45,6.40
2018,02,16,16,46,6.40
2018,02,16,16,47,6.40
2018,02,16,16,48,6.40
2018,02,16,16,49,6.40
2018,02,16,16,50,6.30
2018,02,16,16,51,6.30
2018,02,16,16,52,6.30
2018,02,16,16,53,6.30
2018,02,16,16,54,6.30
2018,02,16,16,55,6.30
2018,02,16,16,56,6.30
2018,02,16,16,57,6.30
2018,02,16,16,58,6.30
2018,02,16,16,59,6.30
2018,02,16,17,00,6.20
2018,02,16,17,01,6.20
2018,02,16,17,02,6.20
2018,02,16,17,03,6.20
2018,02,16,17,04,6.20
2018,02,16,17,05,6.20
2018,02,16,17,06,6.20
2018,02,16,17,07,6.10
2018,02,16,17,08,6.10
2018,02,16,17,09,6.10
2018,02,16,17,10,6.10
2018,02,16,17,11,6.10
2018,02,16,17,12,6.10
2018,02,16,17,13,6.10
2018,02,16,17,14,6.10
2018,02,16,17,15,6.00
2018,02,16,17,16,6.00
2018,02,16,17,17,6.00
2018,02,16,17,18,6.00
2018,02,16,17,19,6.00
2018,02,16,17,20,6.00
2018,02,16,17,21,6.00
2018,02,16,17,22,6.00
2018,02,16,17,23,5.90
2018,02,16,17,24,5.90
2018,02,16,17,25,5.90
2018,02,16,17,26,5.90
2018,02,16,17,27,5.90
2018,02,16,17,28,5.90
2018,02,16,17,29,5.90
2018,02,16,17,30,5.90
2018,02,16,17,31,5.80
2018,02,16,17,32,5.80
2018,02,16,17,33,5.80
2018,02,16,17,34,5.80
2018,02,16,17,35,5.80
2018,02,16,17,36,5.80
2018,02,16,17,37,5.80
2018,02,16,17,38,5.80
2018,02,16,17,39,5.80
2018,02,16,17,40,5.80
2018,02,16,17,41,5.70
2018,02,16,17,42,5.70
2018,02,16,17,43,5.70
2018,02,16,17,44,5.70
2018,02,16,17,45,5.70
2018,02,16,17,46,5.70
2018,02,16,17,47,5.70
2018,02,16,17,48,5.70
2018,02,16,17,49,5.70
2018,02,16,17,50,5.70
2018,02,16,17,51,5.70
2018,02,16,17,52,5.70
2018,02,16,17,53,5.70
2018,02,16,17,54,5.70
2018,02,16,17,55,5.70
2018,02,16,17,56,5.70
2018,02,16,17,57,5.70
2018,02,16,17,58,5.70
2018,02,16,17,59,5.70
2018,02,16,18,00,5.60
2018,02,16,18,01,5.70
2018,02,16,18,02,5.70
2018,02,16,18,03,5.60
2018,02,16,18,04,5.60
2018,02,16,18,05,5.60
2018,02,16,18,06,5.60